User: anonymous   Login
Location: Bismarck
(46.7731°N, 100.8200°W)
Time: 10:23:28
(UTC-06:00)
Language:

Landsat 7 - Orbit

View from above orbital plane
View from above orbital plane
View from above satellite
View from above satellite

Ground track
Ground track

The orbit data is extracted from the following two-line orbital elements,

1 25682U 99020A   14356.17449035  .00000789  00000-0  18521-3 0  9102
2 25682 098.2198 063.3571 0000572 076.9765 283.1527 14.57109344834361
Epoch (UTC): 22 December 2014 04:11:15
Eccentricity: 0.0000572
inclination: 98.2198°
perigee height: 702 km
apogee height: 703 km
right ascension of ascending node: 63.3571°
argument of perigee: 76.9765°
revolutions per day: 14.57109344
mean anomaly at epoch: 283.1527°
orbit number at epoch: 83436

The dashed part of the orbit path shows where the satellite is in the earth's shadow,  

DLR